Flag for Japan Weather past 2 weeks in Fukushima, Japan

Now
81 °F

Pleasantly warm.


Feels Like: 79 °F
Forecast: 52 / 83 °F
Wind: 7 mph from North

Location: Wakamatsu

Current Time: May 23, 2015 at 2:16:59 PM

Latest Report: May 23, 2015 at 1:00 PM


Visibility: 13 mi

Pressure: 29.83 "Hg

Humidity: 27%

Dew point: 44 °F

Location of FukushimaLocation

Historic Weather in Fukushima — Graph

°F

Fukushima temperature yesterday

Maximum temperature yesterday: 81 °F (at 3:00 PM)
Minimum temperature yesterday: 48 °F (at 4:00 AM)
Average temperature yesterday: 63 °F

Past Weeks' High & Low Weather Summary

 TemperatureHumidityPressure
High85 °F (May 15, 2:00 PM)100% (May 16, 7:00 AM)30.31 "Hg (May 16, 7:00 AM)
Low41 °F (May 11, 4:00 AM)16% (May 11, 3:00 PM)29.47 "Hg (May 20, 1:00 PM)
Average63 °F63%29.83 "Hg
* Reported May 8 1:00 PM — May 23 1:00 PM, Fukushima, Weather by CustomWeather, © 2015

Note: Actual official high and low records may vary slightly from our data, if they occured in-between our weather recording intervals... More about our weather records

Advertising

Fukushima weather history for previous 24 hours

 ConditionsComfort  
Time TempWeatherWind HumidityBarometerVisibility
1:00 PM
Sat, May 23
81 °FPleasantly warm.7 mph27%29.83 "Hg12 mi
12:00 PM78 °FPleasantly warm.8 mph28%29.86 "Hg12 mi
11:00 AM76 °FMild.6 mph33%29.88 "Hg12 mi
10:00 AM71 °FMild.3 mph39%29.91 "Hg12 mi
9:00 AM67 °FMild.2 mph53%29.94 "Hg12 mi
8:00 AM62 °FCool.3 mph60%29.97 "Hg12 mi
7:00 AM58 °FCool.2 mph74%29.98 "Hg12 mi
5:00 AM51 °FCool.1 mph90%29.98 "Hg12 mi
4:00 AM51 °FCool.2 mph90%29.97 "Hg12 mi
3:00 AM53 °FCool.2 mph83%29.97 "Hg12 mi
2:00 AM54 °FCool.2 mph82%29.95 "Hg12 mi
1:00 AM56 °FCool.2 mph69%29.95 "Hg12 mi
12:00 AM57 °FCool.1 mph73%29.94 "Hg12 mi
11:00 PM
Fri, May 22
58 °FCool.3 mph68%29.94 "Hg12 mi
10:00 PM60 °FCool.2 mph63%29.94 "Hg12 mi
9:00 PM63 °FMild.3 mph53%29.92 "Hg12 mi
8:00 PM66 °FMild.3 mph46%29.90 "Hg12 mi
7:00 PM70 °FMild.7 mph38%29.86 "Hg12 mi
6:00 PM75 °FMild.8 mph25%29.83 "Hg12 mi
5:00 PM78 °FPleasantly warm.10 mph22%29.82 "Hg12 mi
4:00 PM79 °FPleasantly warm.15 mph19%29.81 "Hg12 mi
3:00 PM81 °FPleasantly warm.12 mph20%29.80 "Hg12 mi
2:00 PM79 °FPleasantly warm.8 mph24%29.82 "Hg12 mi
Weather by CustomWeather, © 2015

See weather overviewHow to use our weather pages